Time,TemperatureF,DewpointF,PressureIn,WindDirection,WindDirectionDegrees,WindSpeedMPH,WindSpeedGustMPH,Humidity,HourlyPrecipIn,Conditions,Clouds,dailyrainin,SoftwareType,DateUTC
2013-07-16 00:12:00,65.9,50.0,29.81,SE,146,0.0,-999.0,57,-99.99,,,0.00,weatherlink.com 1.10,2013-07-16 07:12:00,
2013-07-16 00:27:00,65.5,50.0,29.81,SSE,149,0.0,-999.0,58,-99.99,,,0.00,weatherlink.com 1.10,2013-07-16 07:27:00,
2013-07-16 00:42:00,64.6,51.0,29.81,SSE,154,0.0,-999.0,61,-99.99,,,0.00,weatherlink.com 1.10,2013-07-16 07:42:00,
2013-07-16 00:57:00,64.0,51.0,29.81,SSE,154,0.0,-999.0,62,-99.99,,,0.00,weatherlink.com 1.10,2013-07-16 07:57:00,
2013-07-16 01:12:00,63.7,51.0,29.81,SSE,153,6.0,-999.0,64,-99.99,,,0.00,weatherlink.com 1.10,2013-07-16 08:12:00,
2013-07-16 01:27:00,63.4,51.0,29.81,SSE,154,1.0,-999.0,65,-99.99,,,0.00,weatherlink.com 1.10,2013-07-16 08:27:00,
2013-07-16 01:42:00,62.9,52.0,29.81,SSE,150,0.0,-999.0,67,-99.99,,,0.00,weatherlink.com 1.10,2013-07-16 08:42:00,
2013-07-16 01:57:00,61.9,52.0,29.81,SE,145,1.0,-999.0,69,-99.99,,,0.00,weatherlink.com 1.10,2013-07-16 08:57:00,
2013-07-16 02:12:00,61.3,52.0,29.81,SE,144,0.0,-999.0,72,-99.99,,,0.00,weatherlink.com 1.10,2013-07-16 09:12:00,
2013-07-16 02:27:00,60.7,52.0,29.81,SSE,148,5.0,-999.0,74,-99.99,,,0.00,weatherlink.com 1.10,2013-07-16 09:27:00,
2013-07-16 02:42:00,60.3,52.0,29.81,SE,144,1.0,-999.0,75,-99.99,,,0.00,weatherlink.com 1.10,2013-07-16 09:42:00,
2013-07-16 02:57:00,59.8,53.0,29.81,SSE,152,0.0,-999.0,77,-99.99,,,0.00,weatherlink.com 1.10,2013-07-16 09:57:00,
2013-07-16 03:12:00,59.6,53.0,29.82,SE,145,0.0,-999.0,78,-99.99,,,0.00,weatherlink.com 1.10,2013-07-16 10:12:00,
2013-07-16 03:27:00,59.4,53.0,29.82,SE,143,0.0,-999.0,79,-99.99,,,0.00,weatherlink.com 1.10,2013-07-16 10:27:00,
2013-07-16 03:42:00,59.0,53.0,29.82,SE,136,6.0,-999.0,80,-99.99,,,0.00,weatherlink.com 1.10,2013-07-16 10:42:00,
2013-07-16 03:57:00,58.7,53.0,29.82,SE,140,7.0,-999.0,80,-99.99,,,0.00,weatherlink.com 1.10,2013-07-16 10:57:00,
2013-07-16 04:12:00,58.4,53.0,29.82,SE,139,0.0,-999.0,81,-99.99,,,0.00,weatherlink.com 1.10,2013-07-16 11:12:00,
2013-07-16 04:27:00,58.0,53.0,29.83,SE,135,4.0,-999.0,83,-99.99,,,0.00,weatherlink.com 1.10,2013-07-16 11:27:00,
2013-07-16 04:42:00,57.6,53.0,29.83,SE,134,0.0,-999.0,83,-99.99,,,0.00,weatherlink.com 1.10,2013-07-16 11:42:00,
2013-07-16 04:57:00,57.3,53.0,29.83,SE,134,0.0,-999.0,84,-99.99,,,0.00,weatherlink.com 1.10,2013-07-16 11:57:00,
2013-07-16 05:12:00,57.2,53.0,29.84,SE,130,0.0,-999.0,85,-99.99,,,0.00,weatherlink.com 1.10,2013-07-16 12:12:00,
2013-07-16 05:27:00,57.1,53.0,29.84,SE,128,1.0,-999.0,85,-99.99,,,0.00,weatherlink.com 1.10,2013-07-16 12:27:00,
2013-07-16 05:42:00,57.1,53.0,29.85,SE,129,4.0,-999.0,86,-99.99,,,0.00,weatherlink.com 1.10,2013-07-16 12:42:00,
2013-07-16 05:57:00,57.0,53.0,29.85,ESE,123,7.0,-999.0,86,-99.99,,,0.00,weatherlink.com 1.10,2013-07-16 12:57:00,
2013-07-16 06:12:00,56.8,53.0,29.86,SE,140,0.0,-999.0,86,-99.99,,,0.00,weatherlink.com 1.10,2013-07-16 13:12:00,
2013-07-16 06:27:00,56.9,53.0,29.86,SE,144,8.0,-999.0,85,-99.99,,,0.00,weatherlink.com 1.10,2013-07-16 13:27:00,
2013-07-16 06:42:00,57.0,53.0,29.86,SSE,147,2.0,-999.0,85,-99.99,,,0.00,weatherlink.com 1.10,2013-07-16 13:42:00,
2013-07-16 06:57:00,57.3,53.0,29.87,SSE,153,0.0,-999.0,86,-99.99,,,0.00,weatherlink.com 1.10,2013-07-16 13:57:00,
2013-07-16 07:12:00,57.7,53.0,29.88,SSE,148,4.0,-999.0,84,-99.99,,,0.00,weatherlink.com 1.10,2013-07-16 14:12:00,
2013-07-16 07:27:00,58.1,53.0,29.88,SSE,151,10.0,-999.0,82,-99.99,,,0.00,weatherlink.com 1.10,2013-07-16 14:27:00,
2013-07-16 07:42:00,58.6,53.0,29.89,SSE,155,5.0,-999.0,82,-99.99,,,0.00,weatherlink.com 1.10,2013-07-16 14:42:00,
2013-07-16 07:57:00,59.3,53.0,29.89,SSE,155,1.0,-999.0,80,-99.99,,,0.00,weatherlink.com 1.10,2013-07-16 14:57:00,
2013-07-16 08:12:00,60.2,53.0,29.90,SSE,156,2.0,-999.0,78,-99.99,,,0.00,weatherlink.com 1.10,2013-07-16 15:12:00,
2013-07-16 08:27:00,61.2,53.0,29.90,SSE,155,7.0,-999.0,75,-99.99,,,0.00,weatherlink.com 1.10,2013-07-16 15:27:00,
2013-07-16 08:42:00,61.4,53.0,29.91,SSE,156,0.0,-999.0,75,-99.99,,,0.00,weatherlink.com 1.10,2013-07-16 15:42:00,
2013-07-16 08:57:00,62.4,54.0,29.91,SSE,163,9.0,-999.0,73,-99.99,,,0.00,weatherlink.com 1.10,2013-07-16 15:57:00,
2013-07-16 09:12:00,63.0,54.0,29.91,SSE,163,5.0,-999.0,72,-99.99,,,0.00,weatherlink.com 1.10,2013-07-16 16:12:00,
2013-07-16 09:27:00,64.3,54.0,29.91,SSE,161,5.0,-999.0,70,-99.99,,,0.00,weatherlink.com 1.10,2013-07-16 16:27:00,
2013-07-16 09:42:00,65.7,54.0,29.91,SSE,150,1.0,-999.0,66,-99.99,,,0.00,weatherlink.com 1.10,2013-07-16 16:42:00,
2013-07-16 09:57:00,67.2,55.0,29.91,SSE,162,1.0,-999.0,64,-99.99,,,0.00,weatherlink.com 1.10,2013-07-16 16:57:00,
2013-07-16 10:12:00,68.7,55.0,29.92,SSE,155,0.0,-999.0,61,-99.99,,,0.00,weatherlink.com 1.10,2013-07-16 17:12:00,
2013-07-16 10:27:00,70.0,55.0,29.92,SSE,157,7.0,-999.0,60,-99.99,,,0.00,weatherlink.com 1.10,2013-07-16 17:27:00,
2013-07-16 10:42:00,70.9,54.0,29.92,SSE,159,2.0,-999.0,56,-99.99,,,0.00,weatherlink.com 1.10,2013-07-16 17:42:00,
2013-07-16 10:57:00,72.0,54.0,29.92,South,178,0.0,-999.0,53,-99.99,,,0.00,weatherlink.com 1.10,2013-07-16 17:57:00,
2013-07-16 11:12:00,72.1,54.0,29.92,South,175,4.0,-999.0,53,-99.99,,,0.00,weatherlink.com 1.10,2013-07-16 18:12:00,
2013-07-16 11:27:00,73.8,54.0,29.93,South,177,0.0,-999.0,51,-99.99,,,0.00,weatherlink.com 1.10,2013-07-16 18:27:00,
2013-07-16 11:42:00,74.4,54.0,29.93,South,173,0.0,-999.0,49,-99.99,,,0.00,weatherlink.com 1.10,2013-07-16 18:42:00,
2013-07-16 11:57:00,75.1,54.0,29.93,South,180,2.0,-999.0,48,-99.99,,,0.00,weatherlink.com 1.10,2013-07-16 18:57:00,
2013-07-16 12:12:00,76.2,54.0,29.93,South,185,0.0,-999.0,46,-99.99,,,0.00,weatherlink.com 1.10,2013-07-16 19:12:00,
2013-07-16 12:27:00,76.9,53.0,29.93,South,182,1.0,-999.0,44,-99.99,,,0.00,weatherlink.com 1.10,2013-07-16 19:27:00,
2013-07-16 12:42:00,77.9,54.0,29.93,South,191,3.0,-999.0,44,-99.99,,,0.00,weatherlink.com 1.10,2013-07-16 19:42:00,
2013-07-16 12:57:00,78.9,53.0,29.93,South,190,2.0,-999.0,41,-99.99,,,0.00,weatherlink.com 1.10,2013-07-16 19:57:00,
2013-07-16 13:12:00,78.7,54.0,29.93,South,180,0.0,-999.0,42,-99.99,,,0.00,weatherlink.com 1.10,2013-07-16 20:12:00,
2013-07-16 13:27:00,79.3,54.0,29.93,SSW,213,3.0,-999.0,42,-99.99,,,0.00,weatherlink.com 1.10,2013-07-16 20:27:00,
2013-07-16 13:42:00,80.2,54.0,29.93,South,181,1.0,-999.0,40,-99.99,,,0.00,weatherlink.com 1.10,2013-07-16 20:42:00,
2013-07-16 13:57:00,80.5,54.0,29.92,South,186,1.0,-999.0,40,-99.99,,,0.00,weatherlink.com 1.10,2013-07-16 20:57:00,
2013-07-16 14:12:00,82.1,53.0,29.92,South,184,0.0,-999.0,37,-99.99,,,0.00,weatherlink.com 1.10,2013-07-16 21:12:00,
2013-07-16 14:27:00,81.8,54.0,29.92,South,183,3.0,-999.0,39,-99.99,,,0.00,weatherlink.com 1.10,2013-07-16 21:27:00,
2013-07-16 14:42:00,82.6,54.0,29.92,SSW,198,3.0,-999.0,38,-99.99,,,0.00,weatherlink.com 1.10,2013-07-16 21:42:00,
2013-07-16 14:57:00,83.5,54.0,29.91,SSW,196,0.0,-999.0,36,-99.99,,,0.00,weatherlink.com 1.10,2013-07-16 21:57:00,
2013-07-16 15:12:00,83.6,53.0,29.91,SSW,193,1.0,-999.0,35,-99.99,,,0.00,weatherlink.com 1.10,2013-07-16 22:12:00,
2013-07-16 15:27:00,83.9,53.0,29.91,SSW,197,1.0,-999.0,34,-99.99,,,0.00,weatherlink.com 1.10,2013-07-16 22:27:00,
2013-07-16 15:42:00,84.8,53.0,29.91,SSW,196,2.0,-999.0,34,-99.99,,,0.00,weatherlink.com 1.10,2013-07-16 22:42:00,
2013-07-16 15:57:00,85.4,54.0,29.90,SSW,205,4.0,-999.0,34,-99.99,,,0.00,weatherlink.com 1.10,2013-07-16 22:57:00,
2013-07-16 16:12:00,85.2,53.0,29.90,South,188,3.0,-999.0,33,-99.99,,,0.00,weatherlink.com 1.10,2013-07-16 23:12:00,
2013-07-16 16:27:00,85.5,53.0,29.90,South,170,4.0,-999.0,33,-99.99,,,0.00,weatherlink.com 1.10,2013-07-16 23:27:00,
2013-07-16 16:42:00,85.7,53.0,29.90,South,180,2.0,-999.0,33,-99.99,,,0.00,weatherlink.com 1.10,2013-07-16 23:42:00,
2013-07-16 16:57:00,85.4,52.0,29.90,South,182,0.0,-999.0,32,-99.99,,,0.00,weatherlink.com 1.10,2013-07-16 23:57:00,
2013-07-16 17:12:00,85.1,53.0,29.89,South,177,0.0,-999.0,33,-99.99,,,0.00,weatherlink.com 1.10,2013-07-17 00:12:00,
2013-07-16 17:27:00,85.4,50.0,29.89,South,186,1.0,-999.0,29,-99.99,,,0.00,weatherlink.com 1.10,2013-07-17 00:27:00,
2013-07-16 17:42:00,85.1,52.0,29.89,South,185,4.0,-999.0,32,-99.99,,,0.00,weatherlink.com 1.10,2013-07-17 00:42:00,
2013-07-16 17:57:00,84.6,50.0,29.88,South,182,0.0,-999.0,30,-99.99,,,0.00,weatherlink.com 1.10,2013-07-17 00:57:00,
2013-07-16 18:12:00,83.2,51.0,29.89,South,178,0.0,-999.0,33,-99.99,,,0.00,weatherlink.com 1.10,2013-07-17 01:12:00,
2013-07-16 18:27:00,82.7,52.0,29.89,South,179,1.0,-999.0,34,-99.99,,,0.00,weatherlink.com 1.10,2013-07-17 01:27:00,
2013-07-16 18:42:00,82.2,51.0,29.89,South,178,0.0,-999.0,34,-99.99,,,0.00,weatherlink.com 1.10,2013-07-17 01:42:00,
2013-07-16 18:57:00,81.3,53.0,29.89,SSE,166,2.0,-999.0,37,-99.99,,,0.00,weatherlink.com 1.10,2013-07-17 01:57:00,
2013-07-16 19:12:00,80.3,51.0,29.89,SSE,165,2.0,-999.0,36,-99.99,,,0.00,weatherlink.com 1.10,2013-07-17 02:12:00,
2013-07-16 19:27:00,79.3,52.0,29.90,SSE,162,0.0,-999.0,39,-99.99,,,0.00,weatherlink.com 1.10,2013-07-17 02:27:00,
2013-07-16 19:42:00,78.4,52.0,29.90,SSE,159,10.0,-999.0,40,-99.99,,,0.00,weatherlink.com 1.10,2013-07-17 02:42:00,
2013-07-16 19:57:00,77.4,52.0,29.91,SSE,165,0.0,-999.0,42,-99.99,,,0.00,weatherlink.com 1.10,2013-07-17 02:57:00,
2013-07-16 20:12:00,76.3,53.0,29.91,SSE,161,1.0,-999.0,44,-99.99,,,0.00,weatherlink.com 1.10,2013-07-17 03:12:00,
2013-07-16 20:27:00,75.1,53.0,29.91,SSE,163,1.0,-999.0,46,-99.99,,,0.00,weatherlink.com 1.10,2013-07-17 03:27:00,
2013-07-16 20:42:00,73.8,54.0,29.92,SSE,157,6.0,-999.0,50,-99.99,,,0.00,weatherlink.com 1.10,2013-07-17 03:42:00,
2013-07-16 20:57:00,72.6,54.0,29.92,SSE,158,1.0,-999.0,53,-99.99,,,0.00,weatherlink.com 1.10,2013-07-17 03:57:00,
2013-07-16 21:12:00,71.7,55.0,29.93,SSE,152,0.0,-999.0,56,-99.99,,,0.00,weatherlink.com 1.10,2013-07-17 04:12:00,
2013-07-16 21:27:00,70.3,55.0,29.93,SSE,161,5.0,-999.0,59,-99.99,,,0.00,weatherlink.com 1.10,2013-07-17 04:27:00,
2013-07-16 21:42:00,69.4,55.0,29.95,SSE,159,9.0,-999.0,61,-99.99,,,0.00,weatherlink.com 1.10,2013-07-17 04:42:00,
2013-07-16 21:57:00,68.3,55.0,29.95,SSE,156,4.0,-999.0,63,-99.99,,,0.00,weatherlink.com 1.10,2013-07-17 04:57:00,
2013-07-16 22:12:00,67.6,55.0,29.96,SSE,148,0.0,-999.0,65,-99.99,,,0.00,weatherlink.com 1.10,2013-07-17 05:12:00,
2013-07-16 22:27:00,66.5,55.0,29.97,SSE,158,4.0,-999.0,66,-99.99,,,0.00,weatherlink.com 1.10,2013-07-17 05:27:00,
2013-07-16 22:42:00,65.5,55.0,29.97,SSE,155,6.0,-999.0,68,-99.99,,,0.00,weatherlink.com 1.10,2013-07-17 05:42:00,
2013-07-16 22:57:00,64.7,55.0,29.97,SSE,156,0.0,-999.0,71,-99.99,,,0.00,weatherlink.com 1.10,2013-07-17 05:57:00,
2013-07-16 23:12:00,64.3,55.0,29.98,SSE,159,1.0,-999.0,72,-99.99,,,0.00,weatherlink.com 1.10,2013-07-17 06:12:00,
2013-07-16 23:27:00,63.8,55.0,29.98,SSE,158,0.0,-999.0,73,-99.99,,,0.00,weatherlink.com 1.10,2013-07-17 06:27:00,
2013-07-16 23:42:00,63.3,55.0,29.98,SSE,156,0.0,-999.0,74,-99.99,,,0.00,weatherlink.com 1.10,2013-07-17 06:42:00,
2013-07-16 23:57:00,63.0,55.0,29.98,SSE,156,0.0,-999.0,74,-99.99,,,0.00,weatherlink.com 1.10,2013-07-17 06:57:00,